| time (UTC) | temp F | wind direction | speed MPH | gust MPH | rain 1hr in | rain 24hr in | rain mn in | humidity % | barometer mb |
| 20260507051608 | 42 | 300 | 0.0 | 1.0 | 0.00 | 0.48 | 0.00 | 96 | 1013.7 |
| 20260507050056 | 42 | 300 | 0.0 | 2.0 | 0.00 | 0.48 | 0.00 | 96 | 1014.0 |
| 20260507044558 | 42 | 300 | 0.0 | 1.0 | 0.00 | 0.53 | 0.00 | 96 | 1013.9 |
| 20260507043056 | 42 | 300 | 0.0 | 0.0 | 0.00 | 0.53 | 0.00 | 96 | 1014.1 |
| 20260507041554 | 42 | 300 | 0.0 | 1.0 | 0.00 | 0.53 | 0.00 | 96 | 1013.9 |
| 20260507040051 | 42 | 300 | 0.0 | 0.0 | 0.00 | 0.53 | 0.00 | 96 | 1014.0 |
| 20260507034551 | 42 | 300 | 0.0 | 0.0 | 0.00 | 0.55 | 0.53 | 96 | 1013.9 |
| 20260507033050 | 42 | 300 | 0.0 | 0.0 | 0.00 | 0.55 | 0.53 | 96 | 1013.9 |
| 20260507031550 | 42 | 300 | 0.0 | 1.0 | 0.00 | 0.55 | 0.53 | 96 | 1014.0 |
| 20260507030049 | 42 | 301 | 0.0 | 1.0 | 0.00 | 0.55 | 0.53 | 96 | 1014.1 |
| 20260507024548 | 42 | 301 | 0.0 | 1.0 | 0.00 | 0.61 | 0.53 | 96 | 1013.9 |
| 20260507023048 | 42 | 301 | 0.0 | 0.0 | 0.00 | 0.61 | 0.53 | 96 | 1013.8 |
| 20260507021547 | 42 | 301 | 0.0 | 1.0 | 0.00 | 0.61 | 0.53 | 96 | 1014.0 |
| 20260507020100 | 42 | 301 | 0.0 | 2.0 | 0.00 | 0.61 | 0.53 | 96 | 1014.2 |
| 20260507014548 | 42 | 321 | 0.0 | 1.0 | 0.00 | 0.64 | 0.53 | 95 | 1014.3 |
| 20260507013045 | 42 | 321 | 0.0 | 0.0 | 0.00 | 0.64 | 0.53 | 95 | 1014.2 |
| 20260507011545 | 42 | 321 | 0.0 | 0.0 | 0.00 | 0.64 | 0.53 | 95 | 1013.9 |
| 20260507010057 | 42 | 321 | 0.0 | 1.0 | 0.00 | 0.64 | 0.53 | 95 | 1013.9 |
| 20260507004540 | 42 | 321 | 0.0 | 1.0 | 0.00 | 0.76 | 0.53 | 95 | 1013.6 |
| 20260507003040 | 43 | 321 | 0.0 | 0.0 | 0.00 | 0.76 | 0.53 | 94 | 1013.3 |
| 20260507001539 | 43 | 321 | 0.0 | 0.0 | 0.00 | 0.76 | 0.53 | 94 | 1013.2 |
| 20260507000037 | 42 | 321 | 0.0 | 1.0 | 0.00 | 0.76 | 0.53 | 94 | 1013.2 |
| 20260506234537 | 42 | 321 | 0.0 | 3.0 | 0.00 | 0.88 | 0.53 | 94 | 1013.1 |
| 20260506233037 | 43 | 321 | 0.0 | 3.0 | 0.00 | 0.88 | 0.53 | 95 | 1013.2 |
| 20260506231544 | 42 | 336 | 0.0 | 4.0 | 0.00 | 0.88 | 0.53 | 95 | 1013.0 |
| 20260506230041 | 42 | 9 | 1.0 | 5.0 | 0.00 | 0.88 | 0.53 | 95 | 1012.7 |
| 20260506224538 | 42 | 310 | 2.0 | 6.0 | 0.00 | 1.01 | 0.53 | 95 | 1012.6 |
| 20260506223031 | 42 | 329 | 3.0 | 8.0 | 0.00 | 1.01 | 0.53 | 95 | 1012.3 |
| 20260506221530 | 42 | 320 | 2.0 | 9.0 | 0.01 | 1.01 | 0.53 | 95 | 1012.1 |
| 20260506220035 | 42 | 311 | 3.0 | 10.0 | 0.02 | 1.01 | 0.53 | 95 | 1011.9 |
| 20260506214527 | 41 | 331 | 3.0 | 12.0 | 0.03 | 1.25 | 0.53 | 95 | 1012.1 |
| 20260506213027 | 42 | 322 | 4.0 | 13.0 | 0.03 | 1.25 | 0.53 | 94 | 1011.9 |
| 20260506211529 | 43 | 313 | 5.0 | 11.0 | 0.02 | 1.24 | 0.52 | 93 | 1011.5 |
| 20260506210024 | 44 | 324 | 4.0 | 14.0 | 0.01 | 1.42 | 0.51 | 92 | 1011.3 |
| 20260506204516 | 47 | 286 | 6.0 | 13.0 | 0.00 | 1.41 | 0.50 | 90 | 1010.8 |
| 20260506203016 | 49 | 313 | 5.0 | 15.0 | 0.00 | 1.41 | 0.50 | 87 | 1010.7 |
| 20260506201526 | 50 | 179 | 1.0 | 4.0 | 0.00 | 1.41 | 0.50 | 87 | 1010.3 |
| 20260506200013 | 50 | 256 | 0.0 | 4.0 | 0.00 | 1.41 | 0.50 | 87 | 1010.5 |
| 20260506194513 | 50 | 228 | 0.0 | 4.0 | 0.00 | 1.41 | 0.50 | 86 | 1010.4 |
| 20260506193013 | 50 | 217 | 0.0 | 4.0 | 0.00 | 1.41 | 0.50 | 87 | 1010.3 |
| 20260506191512 | 50 | 173 | 0.0 | 3.0 | 0.00 | 1.41 | 0.50 | 87 | 1010.5 |
| 20260506190015 | 50 | 173 | 0.0 | 2.0 | 0.00 | 1.41 | 0.50 | 87 | 1010.3 |
| 20260506184519 | 50 | 173 | 1.0 | 4.0 | 0.00 | 1.41 | 0.50 | 88 | 1010.3 |
| 20260506183009 | 50 | 101 | 0.0 | 4.0 | 0.00 | 1.41 | 0.50 | 89 | 1010.1 |
| 20260506181506 | 49 | 117 | 1.0 | 4.0 | 0.00 | 1.41 | 0.50 | 90 | 1010.4 |
| 20260506180004 | 49 | 115 | 0.0 | 3.0 | 0.00 | 1.41 | 0.50 | 91 | 1010.4 |
| 20260506174502 | 48 | 115 | 0.0 | 2.0 | 0.00 | 1.41 | 0.50 | 91 | 1010.3 |
| 20260506173002 | 48 | 115 | 0.0 | 1.0 | 0.00 | 1.41 | 0.50 | 92 | 1010.6 |
| 20260506171609 | 48 | 115 | 0.0 | 2.0 | 0.00 | 1.41 | 0.50 | 92 | 1010.6 |
| 20260506170100 | 48 | 115 | 0.0 | 3.0 | 0.00 | 1.41 | 0.50 | 93 | 1010.6 |
| 20260506164558 | 48 | 96 | 1.0 | 4.0 | 0.00 | 1.41 | 0.50 | 93 | 1010.4 |
| 20260506163107 | 48 | 94 | 2.0 | 6.0 | 0.00 | 1.41 | 0.50 | 93 | 1010.1 |
| 20260506161558 | 47 | 79 | 1.0 | 3.0 | 0.00 | 1.41 | 0.50 | 93 | 1010.4 |
| 20260506160108 | 47 | 91 | 1.0 | 3.0 | 0.00 | 1.41 | 0.50 | 94 | 1010.4 |
| 20260506154555 | 47 | 92 | 0.0 | 2.0 | 0.00 | 1.41 | 0.50 | 95 | 1010.1 |
| 20260506153053 | 47 | 92 | 1.0 | 6.0 | 0.00 | 1.41 | 0.50 | 95 | 1010.4 |
| 20260506151552 | 47 | 71 | 2.0 | 5.0 | 0.01 | 1.41 | 0.50 | 96 | 1010.1 |
| 20260506150054 | 46 | 68 | 2.0 | 5.0 | 0.02 | 1.41 | 0.50 | 96 | 1010.1 |
| 20260506144558 | 46 | 61 | 2.0 | 4.0 | 0.02 | 1.41 | 0.50 | 96 | 1010.0 |
| 20260506143046 | 46 | 79 | 1.0 | 4.0 | 0.03 | 1.41 | 0.50 | 96 | 1009.9 |
| 20260506141547 | 45 | 57 | 1.0 | 4.0 | 0.02 | 1.40 | 0.49 | 96 | 1010.0 |
| 20260506140044 | 45 | 84 | 2.0 | 4.0 | 0.01 | 1.39 | 0.48 | 96 | 1009.9 |
| 20260506134540 | 45 | 50 | 1.0 | 4.0 | 0.01 | 1.39 | 0.48 | 97 | 1009.7 |
| 20260506133041 | 44 | 92 | 2.0 | 6.0 | 0.01 | 1.38 | 0.47 | 96 | 1009.6 |
| 20260506131551 | 44 | 116 | 1.0 | 6.0 | 0.01 | 1.38 | 0.47 | 97 | 1009.3 |
| 20260506130035 | 44 | 123 | 2.0 | 4.0 | 0.02 | 1.38 | 0.47 | 97 | 1009.1 |
| 20260506124536 | 44 | 116 | 0.0 | 3.0 | 0.02 | 1.38 | 0.47 | 97 | 1009.2 |
| 20260506123035 | 44 | 95 | 2.0 | 7.0 | 0.02 | 1.37 | 0.46 | 97 | 1009.1 |
| 20260506121532 | 44 | 114 | 3.0 | 7.0 | 0.03 | 1.37 | 0.46 | 97 | 1008.9 |
| 20260506120030 | 44 | 103 | 4.0 | 8.0 | 0.03 | 1.36 | 0.45 | 97 | 1008.8 |
| 20260506114535 | 44 | 108 | 3.0 | 7.0 | 0.03 | 1.36 | 0.45 | 97 | 1008.5 |
| 20260506113025 | 44 | 90 | 2.0 | 8.0 | 0.02 | 1.35 | 0.44 | 97 | 1008.6 |
| 20260506111522 | 44 | 98 | 4.0 | 11.0 | 0.02 | 1.34 | 0.43 | 97 | 1008.7 |
| 20260506110021 | 45 | 90 | 3.0 | 7.0 | 0.02 | 1.33 | 0.42 | 97 | 1008.8 |
| 20260506104519 | 45 | 93 | 3.0 | 7.0 | 0.03 | 1.33 | 0.42 | 97 | 1008.7 |
| 20260506103016 | 45 | 84 | 3.0 | 8.0 | 0.05 | 1.33 | 0.42 | 97 | 1008.6 |
| 20260506101518 | 45 | 98 | 3.0 | 8.0 | 0.05 | 1.32 | 0.41 | 97 | 1008.2 |
| 20260506100022 | 44 | 102 | 0.0 | 4.0 | 0.06 | 1.31 | 0.40 | 97 | 1008.8 |
| 20260506094514 | 44 | 86 | 1.0 | 4.0 | 0.06 | 1.30 | 0.39 | 97 | 1008.8 |
| 20260506093013 | 44 | 86 | 2.0 | 6.0 | 0.06 | 1.28 | 0.37 | 97 | 1008.8 |
| 20260506091509 | 45 | 68 | 3.0 | 9.0 | 0.07 | 1.27 | 0.36 | 97 | 1009.1 |
| 20260506090007 | 45 | 53 | 0.0 | 5.0 | 0.07 | 1.26 | 0.34 | 97 | 1008.9 |
| 20260506084506 | 46 | 84 | 3.0 | 6.0 | 0.09 | 1.25 | 0.33 | 97 | 1008.7 |
| 20260506083004 | 46 | 54 | 2.0 | 5.0 | 0.10 | 1.23 | 0.31 | 97 | 1008.5 |
| 20260506081505 | 46 | 54 | 2.0 | 5.0 | 0.09 | 1.21 | 0.28 | 97 | 1008.6 |
| 20260506080107 | 46 | 53 | 1.0 | 6.0 | 0.09 | 1.19 | 0.27 | 97 | 1008.4 |
| 20260506073057 | 47 | 26 | 1.0 | 4.0 | 0.07 | 1.12 | 0.21 | 97 | 1008.7 |
| 20260506071559 | 47 | 53 | 0.0 | 0.0 | 0.07 | 1.12 | 0.20 | 97 | 1008.8 |
| 20260506061553 | 47 | 63 | 1.0 | 3.0 | 0.06 | 1.18 | 0.13 | 97 | 1008.7 |